| time (UTC) | temp C | wind direction | speed KPH | gust KPH | rain 1hr cm | rain 24hr cm | rain mn cm | humidity % | barometer mb |
| 20260508050054 | 22 | 0 | 0.0 | 1.6 | 0.00 | 0.00 | 0.00 | 80 | 1013.6 |
| 20260508044559 | 22 | 271 | 1.6 | 3.2 | 0.00 | 0.00 | 0.00 | 80 | 1013.5 |
| 20260508043054 | 22 | 0 | 1.6 | 3.2 | 0.00 | 0.00 | 0.00 | 81 | 1013.5 |
| 20260508041553 | 22 | 49 | 0.0 | 1.6 | 0.00 | 0.00 | 0.00 | 82 | 1013.6 |
| 20260508040057 | 22 | 0 | 0.0 | 1.6 | 0.00 | 0.00 | 0.00 | 82 | 1013.7 |
| 20260508034553 | 22 | 0 | 0.0 | 8.0 | 0.00 | 0.00 | 0.00 | 82 | 1013.2 |
| 20260508033059 | 21 | 104 | 1.6 | 6.4 | 0.00 | 0.00 | 0.00 | 84 | 1012.7 |
| 20260508031552 | 21 | 0 | 0.0 | 0.0 | 0.00 | 0.00 | 0.00 | 85 | 1013.7 |
| 20260508030055 | 21 | 0 | 0.0 | 0.0 | 0.00 | 0.00 | 0.00 | 83 | 1014.2 |
| 20260508024600 | 22 | 0 | 0.0 | 1.6 | 0.00 | 0.00 | 0.00 | 82 | 1014.0 |
| 20260508023056 | 22 | 0 | 0.0 | 0.0 | 0.00 | 0.00 | 0.00 | 81 | 1013.8 |
| 20260508021611 | 22 | 31 | 0.0 | 1.6 | 0.00 | 0.00 | 0.00 | 81 | 1013.6 |
| 20260508020101 | 22 | 0 | 0.0 | 1.6 | 0.00 | 0.00 | 0.00 | 79 | 1013.7 |
| 20260508014552 | 23 | 0 | 0.0 | 1.6 | 0.00 | 0.00 | 0.00 | 77 | 1013.5 |
| 20260508013054 | 23 | 0 | 0.0 | 6.4 | 0.00 | 0.00 | 0.00 | 77 | 1013.7 |
| 20260508011607 | 23 | 0 | 0.0 | 1.6 | 0.00 | 0.00 | 0.00 | 79 | 1013.5 |
| 20260508010054 | 23 | 0 | 0.0 | 4.8 | 0.00 | 0.00 | 0.00 | 79 | 1013.7 |
| 20260508004557 | 23 | 4 | 1.6 | 6.4 | 0.00 | 0.00 | 0.00 | 78 | 1013.9 |
| 20260508003051 | 23 | 57 | 1.6 | 12.9 | 0.00 | 0.00 | 0.00 | 77 | 1013.5 |
| 20260508001553 | 23 | 62 | 3.2 | 9.7 | 0.00 | 0.00 | 0.00 | 77 | 1013.6 |
| 20260508000052 | 23 | 23 | 4.8 | 9.7 | 0.00 | 0.00 | 0.00 | 77 | 1013.7 |
| 20260507234557 | 24 | 347 | 3.2 | 8.0 | 0.00 | 0.00 | 0.00 | 78 | 1013.8 |
| 20260507233055 | 25 | 342 | 3.2 | 8.0 | 0.00 | 0.00 | 0.00 | 77 | 1013.8 |
| 20260507231551 | 25 | 54 | 3.2 | 8.0 | 0.00 | 0.00 | 0.00 | 76 | 1013.6 |
| 20260507230053 | 25 | 356 | 1.6 | 6.4 | 0.00 | 0.00 | 0.00 | 76 | 1013.5 |
| 20260507224556 | 25 | 352 | 0.0 | 4.8 | 0.00 | 0.00 | 0.00 | 77 | 1013.4 |
| 20260507223056 | 25 | 38 | 1.6 | 9.7 | 0.00 | 0.00 | 0.00 | 75 | 1013.2 |
| 20260507221553 | 25 | 32 | 1.6 | 9.7 | 0.00 | 0.00 | 0.00 | 79 | 1013.3 |
| 20260507220051 | 25 | 321 | 1.6 | 9.7 | 0.00 | 0.00 | 0.00 | 77 | 1013.3 |
| 20260507214549 | 25 | 6 | 1.6 | 9.7 | 0.00 | 0.00 | 0.00 | 78 | 1013.6 |
| 20260507213051 | 25 | 53 | 0.0 | 9.7 | 0.00 | 0.00 | 0.00 | 78 | 1013.8 |
| 20260507211555 | 24 | 0 | 1.6 | 9.7 | 0.00 | 0.00 | 0.00 | 79 | 1013.9 |
| 20260507210053 | 25 | 319 | 0.0 | 4.8 | 0.00 | 0.00 | 0.00 | 79 | 1014.1 |
| 20260507204553 | 24 | 75 | 3.2 | 11.3 | 0.00 | 0.00 | 0.00 | 77 | 1014.2 |
| 20260507203053 | 24 | 8 | 4.8 | 12.9 | 0.00 | 0.00 | 0.00 | 77 | 1014.2 |
| 20260507201605 | 24 | 11 | 3.2 | 11.3 | 0.00 | 0.00 | 0.00 | 77 | 1014.4 |
| 20260507200057 | 25 | 19 | 4.8 | 11.3 | 0.00 | 0.00 | 0.00 | 76 | 1014.4 |
| 20260507194551 | 24 | 1 | 1.6 | 8.0 | 0.00 | 0.00 | 0.00 | 79 | 1014.3 |
| 20260507193054 | 23 | 36 | 4.8 | 16.1 | 0.00 | 0.00 | 0.00 | 79 | 1014.7 |
| 20260507191552 | 22 | 46 | 3.2 | 9.7 | 0.00 | 0.00 | 0.00 | 81 | 1015.2 |
| 20260507190051 | 22 | 44 | 8.0 | 14.5 | 0.00 | 0.00 | 0.00 | 82 | 1015.5 |
| 20260507184551 | 22 | 24 | 3.2 | 9.7 | 0.00 | 0.00 | 0.00 | 83 | 1015.8 |
| 20260507183054 | 21 | 360 | 4.8 | 11.3 | 0.00 | 0.00 | 0.00 | 83 | 1015.9 |
| 20260507181553 | 21 | 31 | 4.8 | 14.5 | 0.00 | 0.00 | 0.00 | 83 | 1015.8 |
| 20260507180053 | 21 | 350 | 4.8 | 14.5 | 0.00 | 0.00 | 0.00 | 84 | 1016.0 |
| 20260507174601 | 21 | 332 | 3.2 | 11.3 | 0.00 | 0.00 | 0.00 | 84 | 1016.1 |
| 20260507173053 | 21 | 45 | 3.2 | 14.5 | 0.00 | 0.00 | 0.00 | 86 | 1016.1 |
| 20260507171604 | 20 | 25 | 4.8 | 9.7 | 0.00 | 0.00 | 0.00 | 85 | 1016.6 |
| 20260507170055 | 19 | 35 | 3.2 | 9.7 | 0.00 | 0.00 | 0.00 | 88 | 1016.7 |
| 20260507164551 | 19 | 11 | 4.8 | 11.3 | 0.00 | 0.00 | 0.00 | 88 | 1016.8 |
| 20260507163110 | 18 | 200 | 3.2 | 9.7 | 0.00 | 0.00 | 0.00 | 88 | 1016.6 |
| 20260507161554 | 18 | 13 | 4.8 | 12.9 | 0.00 | 0.00 | 0.00 | 89 | 1016.5 |
| 20260507160055 | 18 | 8 | 4.8 | 11.3 | 0.00 | 0.00 | 0.00 | 90 | 1016.0 |
| 20260507154557 | 17 | 333 | 4.8 | 11.3 | 0.00 | 0.00 | 0.00 | 91 | 1016.0 |
| 20260507153051 | 17 | 341 | 3.2 | 14.5 | 0.00 | 0.00 | 0.00 | 91 | 1016.1 |
| 20260507151552 | 18 | 20 | 4.8 | 12.9 | 0.00 | 0.00 | 0.00 | 91 | 1016.0 |
| 20260507150055 | -17 | 0.0 | 0.0 | 0.00 | 0.00 | 0.00 | 1016.4 | ||
| 20260507144614 | -17 | 0.0 | 0.0 | 0.00 | 0.00 | 0.00 | 1016.6 | ||
| 20260507143054 | -17 | 0.0 | 0.0 | 0.00 | 0.00 | 0.00 | 1016.4 | ||
| 20260507141610 | -17 | 0.0 | 0.0 | 0.00 | 0.00 | 0.00 | 1015.9 | ||
| 20260507140055 | -17 | 0.0 | 0.0 | 0.00 | 0.00 | 0.00 | 1015.6 | ||
| 20260507134553 | -17 | 0.0 | 0.0 | 0.00 | 0.00 | 0.00 | 1015.2 | ||
| 20260507133051 | -17 | 0.0 | 0.0 | 0.00 | 0.00 | 0.00 | 1015.1 | ||
| 20260507131553 | -17 | 0.0 | 0.0 | 0.00 | 0.00 | 0.00 | 1015.7 | ||
| 20260507130108 | -17 | 0.0 | 0.0 | 0.00 | 0.00 | 0.00 | 1016.1 | ||
| 20260507124556 | -17 | 0.0 | 0.0 | 0.00 | 0.00 | 0.00 | 1016.0 | ||
| 20260507123053 | -17 | 0.0 | 0.0 | 0.00 | 0.00 | 0.00 | 1015.6 | ||
| 20260507121551 | -17 | 0.0 | 0.0 | 0.00 | 0.00 | 0.00 | 1015.4 | ||
| 20260507120050 | -17 | 0.0 | 0.0 | 0.00 | 0.00 | 0.00 | 1015.0 | ||
| 20260507114556 | -17 | 0.0 | 0.0 | 0.00 | 0.00 | 0.00 | 1014.5 | ||
| 20260507113055 | -17 | 0.0 | 0.0 | 0.00 | 0.00 | 0.00 | 1014.6 | ||
| 20260507111551 | -17 | 0.0 | 0.0 | 0.00 | 0.00 | 0.00 | 1014.0 | ||
| 20260507110054 | -17 | 1.6 | 6.4 | 0.00 | 0.00 | 0.00 | 1013.8 | ||
| 20260507104558 | 18 | 4 | 0.0 | 6.4 | 0.00 | 0.00 | 0.00 | 92 | 1014.2 |
| 20260507103052 | 18 | 10 | 0.0 | 6.4 | 0.00 | 0.00 | 0.00 | 92 | 1014.1 |
| 20260507101553 | 18 | 355 | 1.6 | 8.0 | 0.00 | 0.00 | 0.00 | 92 | 1013.9 |
| 20260507100054 | 18 | 0 | 0.0 | 4.8 | 0.00 | 0.00 | 0.00 | 92 | 1013.9 |
| 20260507094552 | 18 | 360 | 3.2 | 8.0 | 0.00 | 0.00 | 0.00 | 92 | 1013.6 |
| 20260507093058 | 18 | 29 | 1.6 | 6.4 | 0.00 | 0.00 | 0.00 | 92 | 1013.5 |
| 20260507091559 | 18 | 345 | 3.2 | 8.0 | 0.00 | 0.00 | 0.00 | 92 | 1013.2 |
| 20260507090053 | 18 | 8 | 3.2 | 11.3 | 0.00 | 0.00 | 0.00 | 91 | 1013.3 |
| 20260507084551 | 18 | 55 | 3.2 | 11.3 | 0.00 | 0.00 | 0.00 | 91 | 1013.1 |
| 20260507083049 | 18 | 349 | 3.2 | 11.3 | 0.00 | 0.00 | 0.00 | 90 | 1013.4 |
| 20260507081550 | 18 | 1 | 1.6 | 9.7 | 0.00 | 0.00 | 0.00 | 90 | 1013.6 |
| 20260507080050 | 18 | 8 | 3.2 | 8.0 | 0.00 | 0.00 | 0.00 | 90 | 1013.4 |
| 20260507074552 | 18 | 57 | 4.8 | 11.3 | 0.00 | 0.00 | 0.00 | 89 | 1013.4 |
| 20260507073057 | 18 | 5 | 4.8 | 14.5 | 0.00 | 0.00 | 0.00 | 89 | 1013.6 |
| 20260507071553 | 18 | 21 | 4.8 | 14.5 | 0.00 | 0.00 | 0.00 | 89 | 1013.7 |
| 20260507070058 | 18 | 35 | 1.6 | 9.7 | 0.00 | 0.00 | 0.00 | 89 | 1013.9 |
| 20260507064553 | 18 | 354 | 1.6 | 12.9 | 0.00 | 0.00 | 0.00 | 89 | 1013.9 |
| 20260507063053 | 18 | 333 | 4.8 | 11.3 | 0.00 | 0.00 | 0.00 | 89 | 1013.7 |
| 20260507061552 | 18 | 10 | 4.8 | 12.9 | 0.00 | 0.00 | 0.00 | 89 | 1013.5 |
| 20260507054602 | 19 | 355 | 4.8 | 14.5 | 0.00 | 0.00 | 0.00 | 89 | 1013.2 |
| 20260507053058 | 19 | 330 | 3.2 | 11.3 | 0.00 | 0.00 | 0.00 | 89 | 1013.5 |
| 20260507051552 | 20 | 15 | 6.4 | 12.9 | 0.00 | 0.00 | 0.00 | 88 | 1013.2 |